Erieau, Ontario

11:06 PM EST on November 21, 2017 (GMT -0500)
Erieau

Weather History for CWAJ - October, 2012

Change the Weather History Date:

Saturday, October 13, 2012

  Actual Average Record
Temperature  
Mean Temperature 52 °F -  
Max Temperature 60 °F - - ()
Min Temperature 43 °F - - ()
Degree Days  
Heating Degree Days 14    
Growing Degree Days 2 (Base 50)    
Moisture  
Dew Point 41 °F    
Average Humidity 66    
Maximum Humidity 84    
Minimum Humidity 49    
Precipitation  
Precipitation 0.00 in - - ()
Sea Level Pressure  
Sea Level Pressure 30.22 in    
Wind  
Wind Speed 9 mph ()    
Max Wind Speed 21 mph    
Max Gust Speed 22 mph    
T = Trace of Precipitation, MM = Missing Value Source: Averaged Metar Reports

Daily Weather History Graph

Daily Weather History Graph

Search for Another Location

Airport or City:

Trip Planner

Search our weather history database for the weather conditions in past years. The results will help you decide how hot, cold, wet, or windy it might be!

Date:

Astronomy

Oct. 13, 2012 Rise Set
Actual Time 7:38 AM EDT 6:48 PM EDT
Civil Twilight 7:10 AM EDT 7:16 PM EDT
Nautical Twilight 6:37 AM EDT 7:48 PM EDT
Astronomical Twilight 6:05 AM EDT 8:21 PM EDT
Moon 5:25 AM EDT (10/13) 5:32 PM EDT (10/13)
Length of Visible Light 12h 05m
Length of Day
11h 09m
Waning Crescent, 5% of the Moon is Illuminated
Oct 13
Waning Crescent
Oct 15
New
Oct 21
First Quarter
Oct 29
Full
Nov 6
Last Quarter

Hourly Weather History & Observations

Time (EDT) Temp. Windchill Dew Point Humidity Pressure Visibility Wind Dir Wind Speed Gust Speed Precip Events Conditions
12:00 AM 44.6 °F 41.4 °F 34.7 °F 68% 30.41 in - North 5.8 mph - N/A   Unknown
1:00 AM 43.5 °F 40.9 °F 33.8 °F 69% 30.42 in - NNW 4.6 mph - N/A   Unknown
2:00 AM 45 °F - 36 °F 62% 30.39 in - NNE 3.5 mph - -  
2:00 AM 44.6 °F 43.1 °F 36.3 °F 73% 30.39 in - NNE 3.5 mph - N/A   Unknown
3:00 AM 49.5 °F - 34.5 °F 56% 30.35 in - ESE 11.5 mph - N/A   Unknown
5:00 AM 48.7 °F - 32.0 °F 52% 30.36 in - SSE 9.2 mph - N/A   Unknown
6:00 AM 49.3 °F - 37.9 °F 65% 30.36 in - SE 12.7 mph 18.4 mph N/A   Unknown
7:00 AM 48.9 °F - 37.4 °F 64% 30.34 in - SE 16.1 mph - N/A   Unknown
8:00 AM 50 °F - 36 °F 49% 30.33 in - SSE 13.8 mph - -  
8:00 AM 49.8 °F - 36.5 °F 60% 30.33 in - SSE 13.8 mph 21.9 mph N/A   Unknown
9:00 AM 50.7 °F - 37.8 °F 61% 30.32 in - SSE 13.8 mph - N/A   Unknown
10:00 AM 51.8 °F - 41.2 °F 67% 30.32 in - South 13.8 mph 19.6 mph N/A   Unknown
11:00 AM 51.4 °F - 40.6 °F 67% 30.31 in - South 10.4 mph - N/A   Unknown
12:00 PM 52.2 °F - 42.4 °F 69% 30.28 in - SSE 6.9 mph - N/A   Unknown
1:00 PM 52.3 °F - 41.9 °F 68% 30.24 in - SE 12.7 mph - N/A   Unknown
2:00 PM 54 °F - 42 °F 52% 30.18 in - ESE 16.1 mph - -  
2:00 PM 54.1 °F - 41.5 °F 62% 30.18 in - ESE 16.1 mph - N/A   Unknown
3:00 PM 54.9 °F - 41.2 °F 60% 30.14 in - ESE 17.3 mph - N/A   Unknown
4:00 PM 56.1 °F - 43.7 °F 63% 30.10 in - ESE 13.8 mph - N/A   Unknown
5:00 PM 57.2 °F - 44.8 °F 63% 30.05 in - ESE 16.1 mph - N/A   Unknown
6:00 PM 59.0 °F - 49.8 °F 72% 30.01 in - SE 13.8 mph - N/A   Unknown
8:00 PM 60.1 °F - 51.6 °F 74% 29.97 in - South 15.0 mph 21.9 mph N/A   Unknown
9:00 PM 60.3 °F - 53.1 °F 77% 29.96 in - South 20.7 mph - N/A   Unknown
10:00 PM 59.4 °F - 54.0 °F 82% 29.94 in - South 20.7 mph - N/A   Unknown
11:00 PM 59.5 °F - 54.7 °F 84% 29.93 in - South 11.5 mph - N/A   Unknown